Tracking 26544 objects as of 9-Dec-2022
HD Live streaming from Space Station
objects crossing your sky now

STARLINK-4760

Track STARLINK-4760 now!
10-day predictions
STARLINK-4760 is classified as:


NORAD ID: 53828
Int'l Code: 2022-114L
Perigee: 545.6 km
Apogee: 548.2 km
Inclination: 53.2 °
Period: 95.4 minutes
Semi major axis: 6917 km
RCS: Unknown
Launch date: September 19, 2022
Source: United States (US)
Launch site: AIR FORCE EASTERN TEST RANGE (AFETR)
aabbcc
Your satellite tracking list
Your tracking list is empty




NASA's NSSDC Master Catalog

Two Line Element Set (TLE):
1 53828U 22114L   22342.14380470 -.00000413  00000-0 -78571-5 0  9999
2 53828  53.2172 235.1149 0001939  47.8691 312.2466 15.08832415 13555
Source of the keplerian elements: AFSPC